BAW860J EGLL-LKPR

Flight info

Callsign BAW860J
Flight time N/A
Altitude 37000
Route BPK Q295 BRAIN M197 REDFA DCT TACHA DCT NOMKA DCT SUVUT L620 PIKIB T620 LALUK DCT GOLOP
Aircraft A320/M-SDE3FGHIJ1RWXY/S

Departure

Time N/A
Airport London Heathrow Airport (EGLL)

Arrival

Time 2026-05-05 14:42
Airport Václav Havel Airport Prague (LKPR)
Time Latitude Longitude Altitude Speed Heading
2026-05-05 14:15 51.14192 12.34356 36851 ft 467 kts 110°
2026-05-05 14:16 51.12427 12.44299 36838 ft 467 kts 110°
2026-05-05 14:16 51.10655 12.54237 36848 ft 467 kts 110°
2026-05-05 14:17 51.08876 12.64164 36851 ft 466 kts 110°
2026-05-05 14:17 51.07097 12.74081 36850 ft 466 kts 110°
2026-05-05 14:18 51.05317 12.83982 36843 ft 466 kts 110°
2026-05-05 14:18 51.03511 12.93880 36833 ft 466 kts 110°
2026-05-05 14:19 51.01699 13.03760 36838 ft 466 kts 110°
2026-05-05 14:19 50.99881 13.13629 36836 ft 466 kts 110°
2026-05-05 14:20 50.98054 13.23492 36841 ft 466 kts 110°
2026-05-05 14:20 50.96216 13.33337 36831 ft 466 kts 110°
2026-05-05 14:21 50.94420 13.43283 36834 ft 466 kts 109°
2026-05-05 14:21 50.92687 13.53089 36845 ft 463 kts 109°
2026-05-05 14:22 50.91794 13.57981 35897 ft 464 kts 109°
2026-05-05 14:22 50.90852 13.63004 34365 ft 474 kts 109°
2026-05-05 14:22 50.89744 13.67926 32955 ft 474 kts 117°
2026-05-05 14:22 50.88199 13.72486 32115 ft 467 kts 126°
2026-05-05 14:23 50.86315 13.76649 31468 ft 460 kts 133°
2026-05-05 14:23 50.84303 13.80534 30964 ft 455 kts 133°
2026-05-05 14:23 50.82308 13.84392 30425 ft 451 kts 133°
2026-05-05 14:23 50.80407 13.88305 29877 ft 450 kts 127°
2026-05-05 14:24 50.78836 13.92586 29251 ft 449 kts 122°
2026-05-05 14:24 50.77344 13.96883 28691 ft 444 kts 122°
2026-05-05 14:24 50.75858 14.01125 28126 ft 440 kts 122°
2026-05-05 14:24 50.74373 14.05323 27568 ft 436 kts 123°
2026-05-05 14:25 50.72895 14.09474 27021 ft 432 kts 123°
2026-05-05 14:25 50.71426 14.13586 26474 ft 429 kts 123°
2026-05-05 14:25 50.69972 14.17668 25932 ft 425 kts 123°
2026-05-05 14:25 50.68533 14.21713 25416 ft 422 kts 123°
2026-05-05 14:26 50.67104 14.25734 24904 ft 419 kts 123°
2026-05-05 14:26 50.65684 14.29723 24402 ft 416 kts 123°
2026-05-05 14:26 50.64274 14.33679 23909 ft 413 kts 123°
2026-05-05 14:26 50.62794 14.37524 23425 ft 407 kts 131°
2026-05-05 14:27 50.60805 14.40599 22899 ft 396 kts 148°
2026-05-05 14:27 50.58407 14.42570 22471 ft 385 kts 164°
2026-05-05 14:27 50.55817 14.43373 22013 ft 377 kts 180°
2026-05-05 14:27 50.53226 14.43007 21523 ft 372 kts 195°
2026-05-05 14:28 50.50834 14.41550 21046 ft 368 kts 210°
2026-05-05 14:28 50.48685 14.39379 20566 ft 366 kts 214°
2026-05-05 14:28 50.46565 14.37188 20081 ft 365 kts 212°
2026-05-05 14:28 50.44296 14.35434 19572 ft 364 kts 200°
2026-05-05 14:29 50.41832 14.34514 19073 ft 364 kts 187°
2026-05-05 14:29 50.39272 14.34481 18602 ft 364 kts 175°
2026-05-05 14:29 50.36764 14.35001 18134 ft 363 kts 174°
2026-05-05 14:29 50.34266 14.35518 17596 ft 360 kts 174°
2026-05-05 14:30 50.31795 14.36015 17122 ft 357 kts 174°
2026-05-05 14:30 50.29344 14.36500 16651 ft 353 kts 174°
2026-05-05 14:30 50.26922 14.36980 16179 ft 350 kts 174°
2026-05-05 14:30 50.24542 14.37454 15710 ft 347 kts 174°
2026-05-05 14:31 50.22159 14.37926 15248 ft 344 kts 174°
2026-05-05 14:31 50.19788 14.38398 14770 ft 342 kts 174°
2026-05-05 14:31 50.17441 14.38889 14384 ft 336 kts 171°
2026-05-05 14:31 50.15286 14.39913 14258 ft 314 kts 158°
2026-05-05 14:32 50.13446 14.41563 14058 ft 299 kts 145°
2026-05-05 14:32 50.11940 14.43718 13701 ft 292 kts 133°
2026-05-05 14:32 50.10703 14.46214 13132 ft 290 kts 129°
2026-05-05 14:32 50.09495 14.48717 12558 ft 288 kts 129°
2026-05-05 14:33 50.08289 14.51203 11993 ft 287 kts 129°
2026-05-05 14:33 50.07089 14.53670 11438 ft 285 kts 129°
2026-05-05 14:33 50.05895 14.56119 10885 ft 283 kts 129°
2026-05-05 14:33 50.04708 14.58555 10357 ft 281 kts 129°
2026-05-05 14:34 50.03529 14.60975 9826 ft 280 kts 129°
2026-05-05 14:34 50.02356 14.63374 9271 ft 278 kts 129°
2026-05-05 14:34 50.01185 14.65764 8697 ft 276 kts 129°
2026-05-05 14:34 50.00017 14.68122 8136 ft 274 kts 133°
2026-05-05 14:35 49.98525 14.69874 7582 ft 268 kts 160°
2026-05-05 14:35 49.96736 14.70258 7259 ft 259 kts 189°
2026-05-05 14:35 49.95083 14.69271 7015 ft 255 kts 213°
2026-05-05 14:35 49.93862 14.67282 6757 ft 253 kts 239°
2026-05-05 14:36 49.93160 14.64809 6538 ft 249 kts 257°
2026-05-05 14:36 49.93093 14.62183 6359 ft 240 kts 280°
2026-05-05 14:36 49.93657 14.59821 6117 ft 231 kts 302°
2026-05-05 14:36 49.94592 14.57851 5833 ft 223 kts 307°
2026-05-05 14:37 49.95520 14.55964 5564 ft 217 kts 307°
2026-05-05 14:37 49.96426 14.54114 5261 ft 214 kts 308°
2026-05-05 14:37 49.97319 14.52286 4971 ft 211 kts 308°
2026-05-05 14:37 49.98200 14.50482 4698 ft 208 kts 308°
2026-05-05 14:38 49.99068 14.48703 4428 ft 205 kts 309°
2026-05-05 14:38 49.99919 14.46957 4159 ft 201 kts 308°
2026-05-05 14:38 50.00758 14.45236 3895 ft 199 kts 309°
2026-05-05 14:38 50.01589 14.43530 3634 ft 197 kts 310°
2026-05-05 14:39 50.02413 14.41837 3379 ft 195 kts 309°
2026-05-05 14:39 50.03226 14.40166 3125 ft 192 kts 310°
2026-05-05 14:39 50.04029 14.38514 2878 ft 191 kts 309°
2026-05-05 14:39 50.04825 14.36875 2623 ft 188 kts 308°
2026-05-05 14:40 50.05602 14.35274 2386 ft 180 kts 309°
2026-05-05 14:40 50.06307 14.33819 2164 ft 160 kts 310°
2026-05-05 14:40 50.06960 14.32469 1976 ft 154 kts 309°
2026-05-05 14:40 50.07600 14.31145 1776 ft 152 kts 308°
2026-05-05 14:41 50.08232 14.29841 1540 ft 149 kts 309°
2026-05-05 14:41 50.08849 14.28560 1347 ft 147 kts 310°
2026-05-05 14:41 50.09463 14.27296 1214 ft 139 kts 311°
2026-05-05 14:41 50.09963 14.26274 1197 ft 95 kts 307°
2026-05-05 14:42 50.10202 14.25798 1187 ft 25 kts 310°
2026-05-05 14:42 50.10324 14.25671 1185 ft 23 kts 341°
2026-05-05 14:42 50.10432 14.25660 1183 ft 15 kts
2026-05-05 14:42 50.10540 14.25722 1175 ft 19 kts 29°
2026-05-05 14:43 50.10659 14.25851 1173 ft 22 kts 36°
2026-05-05 14:43 50.10786 14.25991 1173 ft 19 kts 34°
2026-05-05 14:43 50.10892 14.26099 1170 ft 18 kts 33°
2026-05-05 14:43 50.10997 14.26209 1170 ft 12 kts 34°
2026-05-05 14:44 50.11067 14.26285 1164 ft 10 kts 37°
2026-05-05 14:44 50.11082 14.26364 1169 ft 6 kts 95°
2026-05-05 14:44 50.11077 14.26425 1169 ft 7 kts 98°
2026-05-05 14:44 50.11070 14.26507 1172 ft 8 kts 98°
2026-05-05 14:45 50.11046 14.26582 1171 ft 8 kts 130°
2026-05-05 14:45 50.11003 14.26632 1171 ft 8 kts 147°
2026-05-05 14:45 50.10959 14.26676 1173 ft 5 kts 148°
2026-05-05 14:45 50.10927 14.26673 1172 ft 5 kts 206°
2026-05-05 14:46 50.10906 14.26651 1170 ft 2 kts 215°
2026-05-05 14:46 50.10898 14.26643 1172 ft 0 kts 214°
2026-05-05 14:46 50.10898 14.26642 1172 ft 0 kts 214°